EW4498 Weather Reports


Display with metric or nautical units.
time (UTC)temp
F
wind
direction
speed
MPH
gust
MPH
rain 1hr
in
rain 24hr
in
rain mn
in
humidity
%
barometer
mb
20260901131635 69 225 4.0 11.0 0.00 0.05 0.02 73 1012.0
20260901130059 67 229 2.0 9.0 0.00 0.05 0.02 77 1012.0
20260901124548 67 205 0.0 6.0 0.00 0.05 0.02 77 1011.9
20260901123003 66 214 3.0 5.0 0.00 0.05 0.02 75 1011.8
20260901121556 66 273 1.0 5.0 0.00 0.05 0.02 76 1011.9
20260901120055 69 257 3.0 8.0 0.00 0.05 0.02 70 1011.9
20260901114649 70 234 2.0 7.0 0.01 0.05 0.02 68 1011.7
20260901113052 70 214 2.0 8.0 0.01 0.05 0.02 64 1011.7
20260901111544 70 237 3.0 10.0 0.01 0.05 0.02 65 1011.7
20260901110015 71 324 3.0 11.0 0.01 0.05 0.02 67 1011.6
20260901103155 70 203 3.0 9.0 0.00 0.04 0.01 72 1011.6
20260901101548 69 221 7.0 14.0 0.00 0.04 0.01 73 1011.5
20260901100137 68 250 2.0 9.0 0.00 0.04 0.01 73 1011.5
20260901094544 68 238 6.0 10.0 0.00 0.12 0.01 74 1011.4
20260901093139 67 263 2.0 8.0 0.00 0.12 0.01 78 1011.3
20260901091554 65 231 6.0 10.0 0.00 0.12 0.01 79 1011.3
20260901090145 66 238 1.0 9.0 0.00 0.12 0.01 77 1011.2
20260901084609 67 219 4.0 10.0 0.00 0.12 0.01 77 1011.1
20260901083103 65 242 2.0 6.0 0.00 0.12 0.01 81 1011.0
20260901081554 65 284 1.0 7.0 0.00 0.12 0.01 80 1010.9
20260901080101 65 285 1.0 9.0 0.00 0.12 0.01 80 1010.6
20260901074548 64 269 2.0 8.0 0.00 0.13 0.01 84 1010.5
20260901073044 64 293 1.0 8.0 0.00 0.13 0.01 86 1010.3
20260901071540 62 300 2.0 6.0 0.00 0.13 0.01 88 1010.2
20260901070045 62 309 1.0 6.0 0.00 0.13 0.01 89 1010.1
20260901064537 62 269 1.0 8.0 0.00 0.14 0.01 91 1010.0
20260901063047 62 266 2.0 8.0 0.00 0.14 0.01 92 1009.9
20260901061530 61 271 0.0 5.0 0.00 0.14 0.01 93 1009.8
20260901060027 60 301 0.0 5.0 0.00 0.14 0.01 93 1009.6
20260901054526 60 237 1.0 6.0 0.00 0.14 0.01 93 1009.6
20260901053024 60 257 1.0 4.0 0.00 0.14 0.01 93 1009.4
20260901051522 60 238 1.0 5.0 0.00 0.14 0.01 93 1009.3
20260901050017 59 246 0.0 0.0 0.00 0.14 0.01 93 1009.2
20260901044514 58 246 0.0 0.0 0.00 0.14 0.01 93 1009.1
20260901043012 58 246 0.0 0.0 0.00 0.14 0.01 93 1009.0
20260901041509 58 246 0.0 0.0 0.00 0.14 0.01 92 1008.8
20260901040008 58 246 0.0 0.0 0.00 0.14 0.01 93 1008.7
20260901034518 58 234 0.0 0.0 0.01 0.14 0.01 93 1008.8
20260901033006 58 228 0.0 0.0 0.01 0.14 0.01 93 1008.7
20260901031508 57 228 0.0 0.0 0.01 0.14 0.01 93 1008.6
20260901030004 57 228 0.0 0.0 0.01 0.14 0.01 93 1008.6
20260901024503 57 228 0.0 0.0 0.00 0.13 0.00 92 1008.5
20260901023002 57 228 0.0 0.0 0.00 0.13 0.00 93 1008.5
20260901021501 57 227 0.0 0.0 0.00 0.13 0.00 92 1008.5
20260901020100 57 226 0.0 0.0 0.00 0.13 0.00 92 1008.4
20260901014559 58 226 0.0 0.0 0.00 0.13 0.00 92 1008.3
20260901013116 58 226 0.0 0.0 0.00 0.13 0.00 92 1008.3
20260901011556 57 226 0.0 0.0 0.00 0.13 0.00 92 1008.1
20260901010057 58 226 0.0 0.0 0.00 0.13 0.00 92 1008.1
20260901004552 58 226 0.0 0.0 0.00 0.13 0.00 92 1008.1
20260901003052 58 228 0.0 0.0 0.00 0.13 0.00 92 1008.1
20260901001553 58 237 0.0 0.0 0.00 0.13 0.00 92 1008.1
20260901000050 58 237 0.0 3.0 0.00 0.13 0.00 92 1008.1
20260831234553 58 246 0.0 0.0 0.00 0.13 0.00 91 1008.0
20260831233054 58 246 0.0 0.0 0.00 0.13 0.00 91 1008.0
20260831231547 59 246 0.0 0.0 0.00 0.13 0.00 91 1008.0
20260831230044 59 247 0.0 3.0 0.00 0.13 0.00 91 1008.0
20260831224543 59 254 0.0 3.0 0.00 0.13 0.00 91 1007.9
20260831223051 59 216 2.0 4.0 0.00 0.13 0.00 91 1007.9
20260831221537 60 205 0.0 0.0 0.00 0.13 0.00 91 1007.9
20260831220032 60 204 0.0 0.0 0.00 0.13 0.00 91 1007.9
20260831214535 60 204 0.0 0.0 0.00 0.13 0.13 91 1008.0
20260831213034 60 204 0.0 0.0 0.00 0.13 0.13 91 1007.9
20260831211534 60 204 0.0 0.0 0.00 0.13 0.13 91 1007.8
20260831210036 60 204 0.0 0.0 0.00 0.13 0.13 91 1007.8
20260831204530 60 200 0.0 0.0 0.00 0.13 0.13 91 1007.7
20260831203056 60 200 0.0 0.0 0.01 0.13 0.13 91 1007.6
20260831201543 61 200 0.0 0.0 0.01 0.13 0.13 90 1007.4
20260831200030 61 200 0.0 0.0 0.01 0.13 0.13 90 1007.4
20260831194537 61 200 0.0 0.0 0.01 0.13 0.13 89 1007.2
20260831193112 61 200 0.0 0.0 0.00 0.13 0.13 89 1007.2
20260831191539 61 200 0.0 4.0 0.00 0.13 0.13 89 1007.3
20260831190016 61 225 0.0 5.0 0.00 0.13 0.13 88 1007.3
20260831184552 61 223 1.0 5.0 0.00 0.13 0.13 88 1007.3
20260831183148 61 223 0.0 3.0 0.00 0.13 0.13 87 1006.9
20260831181603 62 225 2.0 6.0 0.00 0.13 0.13 87 1006.9
20260831180147 62 208 1.0 5.0 0.00 0.13 0.13 88 1006.6
20260831174544 62 199 1.0 4.0 0.00 0.13 0.13 87 1006.6
20260831173145 63 208 2.0 6.0 0.00 0.13 0.13 87 1006.6
20260831171619 63 209 3.0 5.0 0.00 0.13 0.13 87 1006.5
20260831170042 64 244 2.0 7.0 0.00 0.13 0.13 87 1006.4
20260831164639 64 205 3.0 5.0 0.01 0.13 0.13 86 1006.5
20260831163040 64 202 2.0 4.0 0.02 0.13 0.13 86 1006.6
20260831161600 64 213 2.0 5.0 0.02 0.13 0.13 86 1006.7
20260831160031 64 175 2.0 5.0 0.02 0.13 0.13 86 1006.4
20260831154517 65 205 3.0 7.0 0.02 0.12 0.12 84 1006.4
20260831153013 66 192 3.0 8.0 0.01 0.11 0.11 79 1006.5
20260831151621 68 215 4.0 10.0 0.01 0.11 0.11 73 1006.4
20260831150044 70 213 5.0 11.0 0.01 0.11 0.11 69 1006.2
20260831144640 71 221 4.0 9.0 0.00 0.10 0.10 67 1006.2
20260831143048 71 213 6.0 15.0 0.00 0.10 0.10 66 1006.4
20260831141651 73 241 5.0 10.0 0.00 0.10 0.10 64 1006.4
20260831134526 71 212 3.0 9.0 0.00 0.11 0.10 70 1006.4
20260831133144 71 234 4.0 13.0 0.00 0.11 0.10 70 1006.4